This is the latest recevied weather packets stored in our database for station/object NC4M. If no packets are shown the sender has not sent any weather packets the latest 1 day(s).
| Time | Temp. | Humidity | Pressure | Rain* | Wind** | Luminosity | Snow |
|---|---|---|---|---|---|---|---|
| 1777997229 | 12.22° C | 78% | 1010 hPa | 0 mm | 0 m/s | 133 W/m² | - |
| 1777996927 | 12.22° C | 77% | 1009.8 hPa | 0 mm | 0 m/s | 150 W/m² | - |
| 1777996623 | 12.22° C | 78% | 1009.4 hPa | 0 mm | 0 m/s | 171 W/m² | - |
| 1777996319 | 12.22° C | 78% | 1009.4 hPa | 0 mm | 0.45 m/s, 21° | 239 W/m² | - |
| 1777996015 | 12.22° C | 77% | 1009.4 hPa | 0 mm | 0 m/s | 232 W/m² | - |
| 1777995712 | 12.22° C | 77% | 1009.5 hPa | 0 mm | 0.45 m/s, 115° | 169 W/m² | - |
| 1777995409 | 12.22° C | 78% | 1009.5 hPa | 0 mm | 0 m/s | 248 W/m² | - |
| 1777995106 | 11.67° C | 83% | 1009.8 hPa | 0 mm | 0 m/s | 238 W/m² | - |
| 1777994803 | 11.67° C | 81% | 1009.9 hPa | 0 mm | 0.45 m/s, 15° | 177 W/m² | - |
| 1777994498 | 11.11° C | 81% | 1009.9 hPa | 0 mm | 0.89 m/s, 27° | 163 W/m² | - |
| 1777994194 | 11.11° C | 82% | 1009.9 hPa | 0 mm | 0 m/s | 135 W/m² | - |
| 1777993891 | 11.11° C | 82% | 1010.1 hPa | 0 mm | 0 m/s | 105 W/m² | - |
| 1777993587 | 11.11° C | 83% | 1010.2 hPa | 0 mm | 0 m/s | 83 W/m² | - |
| 1777993285 | 11.11° C | 84% | 1010 hPa | 0 mm | 0 m/s | 81 W/m² | - |
| 1777992980 | 11.11° C | 86% | 1009.9 hPa | 0 mm | 0 m/s | 81 W/m² | - |
| 1777992679 | 11.11° C | 85% | 1009.8 hPa | 0 mm | 0.45 m/s, 49° | 66 W/m² | - |
| 1777992376 | 11.11° C | 83% | 1009.9 hPa | 0 mm | 0 m/s | 63 W/m² | - |
| 1777992074 | 11.11° C | 85% | 1009.8 hPa | 0 mm | 0 m/s | 75 W/m² | - |
| 1777991771 | 11.11° C | 84% | 1009.7 hPa | 0 mm | 0 m/s | 106 W/m² | - |
| 1777991468 | 11.11° C | 85% | 1009.8 hPa | 0 mm | 0.45 m/s, 67° | 122 W/m² | - |
| 1777991165 | 10.56° C | 86% | 1009.5 hPa | 0 mm | 0.45 m/s, 24° | 96 W/m² | - |
| 1777990862 | 10.56° C | 85% | 1009.5 hPa | 0 mm | 0 m/s | 81 W/m² | - |
| 1777990559 | 10.56° C | 85% | 1009.4 hPa | 0 mm | 0 m/s | 116 W/m² | - |
| 1777990256 | 10.56° C | 86% | 1009.3 hPa | 0 mm | 0 m/s | 106 W/m² | - |
| 1777989953 | 10.56° C | 84% | 1009 hPa | 0 mm | 0.45 m/s, 44° | 99 W/m² | - |
* Rain latest hour (hover to see other rain measurements)
** Current wind speed in m/s (hover to see current wind gust speed)